timestamp,wind_dir_avg,wind_spd_avg,wind_spd_max_dir,wind_spd_gust,battery_voltage,lat,long
2021-07-28 00:04:01+00:00,202.0,7.8,216.0,10.0,12.65,47.59359,-54.27349
2021-07-28 00:14:01+00:00,212.0,9.22,210.0,9.99,12.65,47.59359,-54.27349
2021-07-28 00:24:01+00:00,207.0,8.43,212.0,9.2,12.65,47.59359,-54.27349
2021-07-28 00:34:01+00:00,211.0,8.78,216.0,10.49,12.65,47.59359,-54.27349
2021-07-28 00:44:01+00:00,210.0,8.71,214.0,10.33,12.65,47.59359,-54.27349
2021-07-28 00:54:01+00:00,212.0,8.88,213.0,10.17,12.65,47.59359,-54.27349
2021-07-28 01:04:01+00:00,212.0,9.62,211.0,10.96,12.65,47.59359,-54.27349
2021-07-28 01:14:00+00:00,210.0,8.7,213.0,9.55,12.65,47.59359,-54.27349
2021-07-28 01:24:00+00:00,212.0,8.44,215.0,9.72,12.65,47.59359,-54.27349
2021-07-28 01:34:00+00:00,216.0,7.43,221.0,9.14,12.65,47.59359,-54.27349
2021-07-28 01:44:00+00:00,218.0,7.04,226.0,8.69,12.65,47.59359,-54.27349
2021-07-28 01:54:00+00:00,215.0,8.01,217.0,9.44,12.65,47.59359,-54.27349
2021-07-28 02:04:00+00:00,208.0,8.28,210.0,9.4,12.65,47.59359,-54.27349
2021-07-28 02:14:01+00:00,211.0,7.88,217.0,9.38,12.57,47.59359,-54.27349
2021-07-28 02:24:01+00:00,211.0,8.98,212.0,10.4,12.57,47.59359,-54.27349
2021-07-28 02:34:01+00:00,210.0,8.43,209.0,9.58,12.57,47.59359,-54.27349
2021-07-28 02:44:01+00:00,212.0,8.78,215.0,10.07,12.57,47.59359,-54.27349
2021-07-28 02:54:01+00:00,208.0,7.81,212.0,9.06,12.57,47.59359,-54.27349
2021-07-28 03:04:01+00:00,208.0,8.4,210.0,9.58,12.57,47.59359,-54.27349
2021-07-28 03:14:01+00:00,214.0,8.16,221.0,9.66,12.57,47.59359,-54.27349
2021-07-28 03:24:01+00:00,213.0,7.43,224.0,8.92,12.57,47.59359,-54.27349
2021-07-28 03:34:01+00:00,207.0,7.78,212.0,8.85,12.57,47.59359,-54.27349
2021-07-28 03:44:01+00:00,213.0,8.02,215.0,9.17,12.57,47.59359,-54.27349
2021-07-28 03:54:01+00:00,214.0,8.24,214.0,9.28,12.57,47.59359,-54.27349
2021-07-28 04:04:01+00:00,210.0,7.53,216.0,8.32,12.57,47.59359,-54.27349
2021-07-28 04:14:01+00:00,211.0,8.11,214.0,9.17,12.57,47.59359,-54.27349
2021-07-28 04:24:01+00:00,203.0,8.26,204.0,9.49,12.57,47.59359,-54.27349
2021-07-28 04:34:01+00:00,211.0,8.49,210.0,9.46,12.57,47.59359,-54.27349
2021-07-28 04:44:01+00:00,200.0,8.44,201.0,9.17,12.57,47.59359,-54.27349
2021-07-28 04:54:01+00:00,205.0,7.81,202.0,8.79,12.57,47.59359,-54.27349
2021-07-28 05:04:01+00:00,205.0,8.26,205.0,9.1,12.57,47.59359,-54.27349
2021-07-28 05:14:00+00:00,209.0,7.77,207.0,8.78,12.57,47.59359,-54.27349
2021-07-28 05:24:00+00:00,209.0,8.8,212.0,9.68,12.57,47.59359,-54.27349
2021-07-28 05:34:00+00:00,206.0,7.96,209.0,9.05,12.57,47.59359,-54.27349
2021-07-28 05:44:00+00:00,206.0,8.4,207.0,9.28,12.57,47.59359,-54.27349
2021-07-28 05:54:00+00:00,214.0,8.39,219.0,9.56,12.57,47.59359,-54.27349
2021-07-28 06:04:00+00:00,214.0,8.44,220.0,9.84,12.57,47.59359,-54.27349
2021-07-28 06:14:00+00:00,215.0,7.97,215.0,9.72,12.49,47.59359,-54.27349
2021-07-28 06:24:00+00:00,219.0,8.64,218.0,9.76,12.49,47.59359,-54.27349
2021-07-28 06:34:00+00:00,221.0,8.12,229.0,9.17,12.49,47.59359,-54.27349
2021-07-28 06:44:00+00:00,220.0,8.35,219.0,9.23,12.49,47.59359,-54.27349
2021-07-28 06:54:00+00:00,218.0,9.46,220.0,10.45,12.49,47.59359,-54.27349
2021-07-28 07:04:00+00:00,216.0,8.18,217.0,9.29,12.49,47.59359,-54.27349
2021-07-28 07:14:01+00:00,214.0,8.97,216.0,10.19,12.49,47.59359,-54.27349
2021-07-28 07:24:01+00:00,211.0,9.14,208.0,10.13,12.49,47.59359,-54.27349
2021-07-28 07:34:01+00:00,213.0,9.26,213.0,10.53,12.49,47.59359,-54.27349
2021-07-28 07:44:01+00:00,218.0,9.33,218.0,10.52,12.49,47.59359,-54.27349
2021-07-28 07:54:01+00:00,215.0,8.06,217.0,9.39,12.49,47.59359,-54.27349
2021-07-28 08:04:01+00:00,222.0,7.11,230.0,7.81,12.49,47.59359,-54.27349
2021-07-28 08:14:01+00:00,218.0,7.46,213.0,8.47,12.49,47.59359,-54.27349
2021-07-28 08:24:01+00:00,212.0,8.37,211.0,9.29,12.49,47.59359,-54.27349
2021-07-28 08:34:01+00:00,214.0,7.27,216.0,8.2,12.49,47.59359,-54.27349
2021-07-28 08:44:01+00:00,216.0,6.26,220.0,7.55,12.49,47.59359,-54.27349
2021-07-28 08:54:01+00:00,220.0,8.37,219.0,9.17,12.49,47.59359,-54.27349
2021-07-28 09:04:01+00:00,216.0,6.89,218.0,7.61,12.49,47.59359,-54.27349
2021-07-28 09:14:01+00:00,212.0,6.64,216.0,7.44,12.49,47.59359,-54.27349
2021-07-28 09:24:01+00:00,214.0,6.55,217.0,7.36,12.49,47.59359,-54.27349
2021-07-28 09:34:01+00:00,209.0,6.25,209.0,7.24,12.49,47.59359,-54.27349
2021-07-28 09:44:01+00:00,209.0,5.82,215.0,6.82,12.49,47.59359,-54.27349
2021-07-28 09:54:01+00:00,216.0,6.31,217.0,7.68,12.49,47.59359,-54.27349
2021-07-28 10:04:01+00:00,220.0,6.02,226.0,7.36,12.49,47.59359,-54.27349
2021-07-28 10:14:01+00:00,219.0,7.93,220.0,9.14,12.81,47.59359,-54.27349
2021-07-28 10:24:01+00:00,211.0,6.67,215.0,7.64,12.81,47.59359,-54.27349
2021-07-28 10:34:01+00:00,222.0,6.18,224.0,6.87,12.81,47.59359,-54.27349
2021-07-28 10:44:01+00:00,221.0,4.84,222.0,5.52,12.81,47.59359,-54.27349
2021-07-28 10:54:01+00:00,223.0,5.64,225.0,6.78,12.81,47.59359,-54.27349
2021-07-28 11:04:01+00:00,219.0,5.75,224.0,6.8,12.81,47.59359,-54.27349
2021-07-28 11:14:01+00:00,217.0,6.01,220.0,6.59,13.21,47.59359,-54.27349
2021-07-28 11:24:01+00:00,216.0,5.74,216.0,6.86,13.21,47.59359,-54.27349
2021-07-28 11:34:01+00:00,222.0,6.2,226.0,7.44,13.21,47.59359,-54.27349
2021-07-28 11:44:01+00:00,223.0,4.9,220.0,5.91,13.21,47.59359,-54.27349
2021-07-28 11:54:01+00:00,224.0,5.52,227.0,6.69,13.21,47.59359,-54.27349
2021-07-28 12:04:01+00:00,208.0,7.18,203.0,8.14,13.21,47.59359,-54.27349
2021-07-28 12:14:01+00:00,210.0,7.37,215.0,8.55,13.68,47.59359,-54.27349
2021-07-28 12:24:01+00:00,208.0,6.76,216.0,7.95,13.68,47.59359,-54.27349
2021-07-28 12:34:01+00:00,217.0,7.75,218.0,8.81,13.68,47.59359,-54.27349
2021-07-28 12:44:01+00:00,214.0,7.78,214.0,8.66,13.68,47.59359,-54.27349
2021-07-28 12:54:01+00:00,214.0,7.2,213.0,8.47,13.68,47.59359,-54.27349
2021-07-28 13:04:01+00:00,216.0,8.23,223.0,9.71,13.68,47.59359,-54.27349
2021-07-28 13:14:01+00:00,222.0,6.08,220.0,7.24,13.84,47.59359,-54.27349
2021-07-28 13:24:01+00:00,215.0,6.3,217.0,7.16,13.84,47.59359,-54.27349
2021-07-28 13:34:01+00:00,208.0,6.75,212.0,7.65,13.84,47.59359,-54.27349
2021-07-28 13:44:01+00:00,208.0,6.68,215.0,7.3,13.84,47.59359,-54.27349
2021-07-28 13:54:01+00:00,202.0,5.65,205.0,6.69,13.84,47.59359,-54.27349
2021-07-28 14:04:01+00:00,202.0,5.09,207.0,5.76,13.84,47.59359,-54.27349
2021-07-28 14:14:01+00:00,204.0,4.99,206.0,5.62,13.84,47.59359,-54.27349
2021-07-28 14:24:01+00:00,199.0,4.92,203.0,5.43,13.84,47.59359,-54.27349
2021-07-28 14:34:01+00:00,198.0,5.45,198.0,6.04,13.84,47.59359,-54.27349
2021-07-28 14:44:01+00:00,197.0,5.4,196.0,5.93,13.84,47.59359,-54.27349
2021-07-28 14:54:01+00:00,201.0,4.85,199.0,5.32,13.84,47.59359,-54.27349
2021-07-28 15:04:01+00:00,199.0,4.37,199.0,5.3,13.84,47.59359,-54.27349
2021-07-28 15:14:01+00:00,202.0,6.39,202.0,7.03,13.84,47.59359,-54.27349
2021-07-28 15:24:01+00:00,209.0,5.94,208.0,6.78,13.84,47.59359,-54.27349
2021-07-28 15:34:01+00:00,201.0,4.84,198.0,5.48,13.84,47.59359,-54.27349
2021-07-28 15:44:01+00:00,198.0,4.27,196.0,4.91,13.84,47.59359,-54.27349
2021-07-28 15:54:01+00:00,192.0,4.8,191.0,5.57,13.84,47.59359,-54.27349
2021-07-28 16:04:01+00:00,198.0,4.81,201.0,5.71,13.84,47.59359,-54.27349
2021-07-28 16:14:01+00:00,200.0,6.33,204.0,7.29,13.84,47.59359,-54.27349
2021-07-28 16:24:01+00:00,202.0,6.28,203.0,7.35,13.84,47.59359,-54.27349
2021-07-28 16:34:01+00:00,202.0,6.52,205.0,7.22,13.84,47.59359,-54.27349
2021-07-28 16:44:01+00:00,219.0,6.99,218.0,8.56,13.84,47.59359,-54.27349
2021-07-28 16:54:01+00:00,218.0,5.74,219.0,6.63,13.84,47.59359,-54.27349
2021-07-28 17:04:01+00:00,209.0,5.14,214.0,6.22,13.84,47.59359,-54.27349
2021-07-28 17:14:01+00:00,208.0,4.11,206.0,4.57,14.08,47.59359,-54.27349
2021-07-28 17:24:01+00:00,188.0,4.51,192.0,5.04,14.08,47.59359,-54.27349
2021-07-28 17:34:01+00:00,197.0,3.66,196.0,4.03,14.08,47.59359,-54.27349
2021-07-28 17:44:01+00:00,197.0,2.8,203.0,3.54,14.08,47.59359,-54.27349
2021-07-28 17:54:01+00:00,198.0,3.93,198.0,4.77,14.08,47.59359,-54.27349
2021-07-28 18:04:01+00:00,208.0,6.72,212.0,7.89,14.08,47.59359,-54.27349
2021-07-28 18:14:01+00:00,217.0,7.21,217.0,8.07,13.76,47.59359,-54.27349
2021-07-28 18:24:01+00:00,217.0,6.1,218.0,7.07,13.76,47.59359,-54.27349
2021-07-28 18:34:01+00:00,213.0,6.67,215.0,7.47,13.76,47.59359,-54.27349
2021-07-28 18:44:01+00:00,192.0,6.73,192.0,7.29,13.76,47.59359,-54.27349
2021-07-28 18:54:01+00:00,201.0,6.07,209.0,6.89,13.76,47.59359,-54.27349
2021-07-28 19:04:01+00:00,203.0,6.71,201.0,7.46,13.76,47.59359,-54.27349
2021-07-28 19:14:01+00:00,215.0,6.08,218.0,7.17,13.76,47.59359,-54.27349
2021-07-28 19:24:01+00:00,203.0,5.16,203.0,5.76,13.76,47.59359,-54.27349
2021-07-28 19:34:01+00:00,199.0,5.51,200.0,5.95,13.76,47.59359,-54.27349
2021-07-28 19:44:01+00:00,204.0,4.94,198.0,5.54,13.76,47.59359,-54.27349
2021-07-28 19:54:01+00:00,192.0,5.63,189.0,6.18,13.76,47.59359,-54.27349
2021-07-28 20:04:01+00:00,200.0,6.07,208.0,6.85,13.76,47.59359,-54.27349
2021-07-28 20:14:01+00:00,202.0,6.11,204.0,6.88,13.76,47.59359,-54.27349
2021-07-28 20:24:01+00:00,195.0,4.49,194.0,4.97,13.76,47.59359,-54.27349
2021-07-28 20:34:01+00:00,187.0,3.98,188.0,4.4,13.76,47.59359,-54.27349
2021-07-28 20:44:01+00:00,207.0,4.71,206.0,6.01,13.76,47.59359,-54.27349
2021-07-28 20:54:01+00:00,226.0,5.87,226.0,6.82,13.76,47.59359,-54.27349
2021-07-28 21:04:01+00:00,217.0,6.81,220.0,8.01,13.76,47.59359,-54.27349
2021-07-28 21:14:00+00:00,231.0,9.08,229.0,10.32,13.44,47.59359,-54.27349
2021-07-28 21:24:00+00:00,225.0,7.26,226.0,8.57,13.44,47.59359,-54.27349
2021-07-28 21:34:00+00:00,221.0,6.62,225.0,8.04,13.44,47.59359,-54.27349
2021-07-28 21:44:00+00:00,206.0,7.22,211.0,8.18,13.44,47.59359,-54.27349
2021-07-28 21:54:00+00:00,198.0,5.66,194.0,6.61,13.44,47.59359,-54.27349
2021-07-28 22:04:00+00:00,194.0,5.18,195.0,5.7,13.44,47.59359,-54.27349
2021-07-28 22:14:01+00:00,197.0,4.9,198.0,5.63,13.21,47.59359,-54.27349
2021-07-28 22:24:01+00:00,188.0,4.05,187.0,4.64,13.21,47.59359,-54.27349
2021-07-28 22:34:01+00:00,206.0,4.73,206.0,5.64,13.21,47.59359,-54.27349
2021-07-28 22:44:01+00:00,215.0,4.5,214.0,5.2,13.21,47.59359,-54.27349
2021-07-28 22:54:01+00:00,199.0,5.37,197.0,6.05,13.21,47.59359,-54.27349
2021-07-28 23:04:01+00:00,203.0,5.83,203.0,6.79,13.21,47.59359,-54.27349
2021-07-28 23:14:01+00:00,192.0,5.18,192.0,5.7,12.73,47.59359,-54.27349
2021-07-28 23:24:01+00:00,197.0,6.71,199.0,7.29,12.73,47.59359,-54.27349
2021-07-28 23:34:01+00:00,212.0,7.4,212.0,8.17,12.73,47.59359,-54.27349
2021-07-28 23:44:01+00:00,214.0,6.99,218.0,8.25,12.73,47.59359,-54.27349
2021-07-28 23:54:01+00:00,217.0,6.08,225.0,6.9,12.73,47.59359,-54.27349
